World > North America > United States > Utah > Scipio  

Scipio, UT Hourly Weather Updates

Feedback E-mail the Weather

Quick Clicks

Scipio, UT Weather Maps

°F °C°F °C
Scipio Weather Map
UTC Time: 6/14/2024, 08:21
Your Time:

Scipio, UT Regional Weather

Expires:202406140900;;990880
ASUS45 KSLC 140810
RWRUT 

UTAH REGIONAL WEATHER ROUNDUP
NATIONAL WEATHER SERVICE SALT LAKE CITY UT
200 AM MDT FRI JUN 14 2024


UTZ024>027-106-112>120-140900-

CENTRAL/NORTHEAST UTAH
  
CITY           SKY/WX    TMP DP  RH WIND       PRES   REMARKS
PROVO AIRPORT  CLOUDY    78  36  21 S10       30.03S                  
MOAB/CANYONLAN CLOUDY    77  45  32 SW5G18    30.14R                  
DELTA          MOCLDY    72  30  21 SE16      30.06R                  
PRICE          CLOUDY    75  33  21 SW12G21   30.17R                  
ROOSEVELT      CLOUDY    70  36  28 W9        30.07S                  
DUCHESNE       MOSUNNY   72  27  18 W3        30.13R                  
VERNAL         CLOUDY    76  33  21 CALM      30.07R                  

$$


SKY/WX - Weather  TMP - Temperature  DP - Dew Point  RH - Humidity
WIND - Wind Direction/Speed PRES - Barometric Pressure VSB - Visibility
WCI - Wind Chill Index E13G22 Wind - East Wind 13 mph/Gusts of 22 mph

Trending Headlines

Trending Entertainment Headlines

Scipio Radar Loop

Use the map search tool if you want to place a location marker on the radar map...

Scipio Quick Facts

National Two Day Weather Forecast


E-mail the Scipio Weather Forecast

Voice your opinion or tell us about page issues...